Location: Neukirch
(47.5287°N, 9.3700°E)
Time: 14:18:20
(UTC+00:00)

Daily predictions for brighter satellites

Satellite Brightness Start Highest point End
(mag) Time Altitude Azimuth Time Altitude Azimuth Time Altitude Azimuth
SPOT 3 Rocket 3.6 19:53:14 10° SSE 19:58:23 81° ENE 20:03:37 10° NNW
Cosmos 1842 3.7 19:55:20 10° SSW 19:59:15 69° W 20:03:12 10° N
Landsat 7 3.9 19:55:18 10° SSE 20:00:03 82° ENE 20:04:50 10° NNW
USA 238 DEB 3.7 19:56:43 10° SW 20:03:17 86° SE 20:10:13 10° NE
USA 238 3.7 19:56:50 10° SW 20:03:23 86° SE 20:10:19 10° NE
ATLAS CENTAUR R/B 3.5 20:01:32 10° NNW 20:04:41 20° NE 20:07:58 10° E
SL-16 R/B 2.3 19:59:21 10° S 20:04:53 57° ESE 20:10:27 10° NE
Cosmos 2360 Rocket 3.1 20:02:04 10° SSE 20:06:46 28° ESE 20:11:29 10° NE
Cosmos 2322 Rocket 2.5 20:02:23 10° S 20:07:48 47° ESE 20:13:16 10° NE
ARIANE 5 R/B 3.3 20:06:31 10° SE 20:10:41 42° ENE 20:14:55 10° N
Genesis I 3.1 20:07:10 10° SSW 20:10:59 69° SE 20:14:55 10° NE
CZ-2C R/B 3.9 20:07:03 10° NNE 20:11:46 58° E 20:16:28 10° S
Cosmos 676 Rocket 4.5 20:09:18 10° NNW 20:14:34 63° WSW 20:19:49 10° S
Meteor 1-21 4.3 20:09:12 10° S 20:14:52 86° E 20:20:32 10° NNE
CENTAUR R/B 2.7 20:09:11 10° SW 20:15:08 85° NW 20:22:21 10° NE
Cosmos 1470 3.2 20:11:12 10° NNW 20:15:09 64° W 20:19:04 10° S
Ariane Rocket 4.3 20:13:42 10° SSW 20:18:25 37° W 20:23:11 10° NNW
Cosmos 2173 Rocket 4.4 20:17:12 10° N 20:23:26 52° ENE 20:29:31 10° SSE
Cosmos 1315 Rocket 3.4 20:21:33 10° NNW 20:25:38 58° W 20:29:40 10° S
Cosmos 1674 3.2 20:22:41 10° SSE 20:26:10 40° E 20:29:40 10° NNE
Cosmos 1980 Rocket 4.1 20:21:21 10° WSW 20:26:29 35° NW 20:31:37 10° NNE
Cosmos 2237 4.5 20:21:11 10° S 20:26:37 48° ESE 20:32:05 10° NE
USA 81 4.1 20:21:33 10° N 20:26:51 89° ENE 20:32:08 10° S
Okean 1 Rocket 3.9 20:25:24 10° NNW 20:29:37 49° W 20:33:50 10° SSW
Cosmos 2278 Rocket 4.4 20:26:29 10° N 20:29:52 16° NE 20:33:13 10° ENE
NOSS 8 (A) 4.3 20:27:46 10° SSW 20:31:05 52° SE 20:33:58 10° NE
Cosmos 1455 Rocket 3.3 20:28:26 10° N 20:32:52 60° ENE 20:36:54 12° SSE
Cosmos 1727 Rocket 4.0 20:28:44 10° S 20:35:03 85° E 20:41:22 10° N
USA 267 4.4 20:29:57 10° E 20:36:02 43° NNE 20:42:08 10° NW
Meteor 2-20 Rocket 4.5 20:33:48 10° S 20:39:55 86° E 20:46:04 10° N
Cosmos 1110 Rocket 4.4 20:35:45 10° S 20:40:37 43° ESE 20:45:33 10° NE
Cosmos 1726 3.8 20:38:25 10° NNW 20:41:38 30° W 20:44:51 10° SSW
Cosmos 1844 Rocket 2.9 20:37:08 10° NNW 20:42:49 67° ENE 20:47:39 14° SE
BREEZE-M DEB (TANK) 2.7 20:40:48 10° SW 20:43:13 50° SSE 20:48:08 10° ENE
Cosmos 1758 4.2 20:40:05 10° NNW 20:43:56 47° W 20:47:44 10° SSW
Cosmos 1802 Rocket 4.2 20:44:21 10° N 20:50:35 64° ENE 20:55:58 15° SSE
Cosmos 292 Rocket 4.4 20:45:55 10° SW 20:50:41 59° WNW 20:55:29 10° NNE
Cosmos 1908 3.2 20:47:28 10° N 20:51:22 79° E 20:54:25 16° SSE
Cosmos 1340 3.7 20:51:55 17° SE 20:54:01 30° E 20:57:20 10° NNE
Lacrosse 5 rocket 1.8 20:51:28 10° SSW 20:54:41 29° SE 20:57:50 10° ENE
Cosmos 2263 Rocket 4.0 20:50:46 10° NW 20:55:16 25° WSW 20:59:46 10° SSW
SPOT 5 3.0 20:53:08 14° SSE 20:57:38 88° ENE 21:02:37 10° NNW
Cosmos 1707 4.5 20:56:41 10° SW 21:00:13 33° WNW 21:03:46 10° N
Cosmos 405 3.9 20:57:01 10° N 21:00:14 34° ENE 21:02:06 20° SE
Cosmos 1536 Rocket 4.4 20:58:17 18° SSE 21:01:04 35° E 21:05:08 10° NNE
Cosmos 1452 Rocket 3.9 20:57:07 10° SSW 21:02:22 66° WNW 21:07:40 10° NNE
DNEPR-1 R/B 4.3 20:58:45 10° NNW 21:02:50 44° NE 21:06:15 15° ESE
Cosmos 1459 Rocket 4.0 21:03:12 10° N 21:09:15 79° W 21:14:34 14° S
Resurs 01 Rocket 4.0 21:06:40 10° SW 21:09:39 18° W 21:12:39 10° NW
Terra 1.8 21:06:08 18° SSE 21:09:43 82° ENE 21:14:30 10° NNW
Cosmos 1953 2.9 21:07:55 10° NNW 21:11:54 54° W 21:15:10 14° S
Lacrosse 5 3.3 21:08:42 10° WNW 21:12:51 26° SW 21:16:06 14° S
Cosmos 2333 Rocket 2.6 21:09:00 15° S 21:13:28 43° ESE 21:18:52 10° NE
Cosmos 1025 Rocket 3.0 21:10:01 14° S 21:13:48 85° E 21:18:12 10° N
CARTOSAT-1 4.5 21:10:58 12° S 21:14:46 43° W 21:18:54 10° NNW
SL-14 R/B 3.4 21:17:36 21° S 21:20:11 64° E 21:24:11 10° NNE
Cosmos 2228 4.3 21:18:19 10° N 21:22:12 29° ENE 21:24:34 18° ESE
FALCON 9 DEB 2.9 21:19:04 10° SW 21:22:28 77° SSE 21:25:54 10° ENE
Cosmos 1975 Rocket 4.2 21:19:41 10° SSW 21:23:48 42° WNW 21:28:01 10° N
Cosmos 2061 Rocket 4.1 21:18:23 10° N 21:24:53 88° E 21:29:43 19° S
ATLAS 3B R/B 2.8 21:19:04 10° SSW 21:25:21 52° ESE 21:31:51 10° NE
Cosmos 1844 3.8 21:20:58 10° NNW 21:26:32 72° WSW 21:30:18 21° SSE
Cosmos 1331 Rocket 4.1 21:23:05 10° SSW 21:28:19 84° WNW 21:33:39 10° NNE
Cosmos 2219 Rocket 2.5 21:24:39 18° S 21:28:40 48° ESE 21:34:07 10° NE
ERS-1 Rocket 3.6 21:24:38 15° S 21:28:40 50° W 21:33:36 10° NNW
Cosmos 1461 3.4 21:24:48 10° NW 21:28:51 46° WSW 21:30:58 24° S
Cosmos 1626 2.5 21:27:14 15° SSW 21:30:09 60° W 21:33:51 10° N
Cosmos 1864 Rocket 4.5 21:25:03 10° N 21:31:18 88° W 21:35:46 20° S
Meteor 1-24 Rocket 3.9 21:30:57 22° SSE 21:34:10 51° E 21:39:27 10° NNE
Aureole 1 Rocket 4.5 21:29:14 10° NNW 21:34:52 57° WSW 21:40:17 18° S
Meteor 2-10 Rocket 4.0 21:29:59 10° N 21:34:55 46° ENE 21:37:47 23° SE
BREEZE-M DEB (TANK) 3.4 21:36:59 10° W 21:39:07 21° SW 21:39:07 21° SW
SL-8 R/B 3.8 21:34:41 10° WNW 21:39:23 56° SSW 21:41:58 25° SE
Cosmos 2123 Rocket 4.1 21:34:02 14° S 21:39:33 85° W 21:45:56 10° N
BREEZE-M DEB (TANK) 1.9 21:38:16 10° WSW 21:40:54 68° SSE 21:46:47 10° ENE
FALCON 9 DEB 4.0 21:44:47 28° ESE 21:44:47 28° ESE 21:46:43 10° ENE
Cosmos 2237 Rocket 3.6 21:42:21 18° ESE 21:43:55 20° E 21:47:54 10° NE
ATLAS CENTAUR R/B 1.5 21:39:44 10° NW 21:44:04 86° SW 21:46:25 28° SSE
USA 215 3.3 21:37:55 10° ENE 21:44:20 56° SE 21:50:44 10° SW
Cosmos 1302 Rocket 4.0 21:42:29 18° SSW 21:46:24 74° ESE 21:51:40 10° NNE
Cosmos 1867 4.1 21:42:55 10° NNW 21:48:21 56° NE 21:52:15 19° ESE
Cosmos 2233 Rocket 3.9 21:42:57 10° N 21:49:08 82° E 21:53:01 24° SSE
SL-16 R/B 4.2 21:44:27 10° WSW 21:49:21 29° NW 21:54:16 10° NNE
Cosmos 2360 Rocket 3.0 21:44:57 10° SW 21:50:28 52° WNW 21:56:00 10° NNE
SL-24 R/B 4.4 21:45:42 10° N 21:50:35 79° W 21:53:44 22° SSW
Cosmos 2322 Rocket 3.9 21:46:53 10° WSW 21:52:02 34° NW 21:57:13 10° NNE
FALCON 9 DEB 3.8 21:53:44 32° ESE 21:53:44 32° ESE 21:55:51 10° ENE
Spot 4 4.3 21:52:24 25° SE 21:54:55 50° ENE 21:59:33 10° N
Centaur D AC-29 4.1 21:42:53 10° WSW 21:56:15 18° SW 21:59:44 15° SSW
Cosmos 1726 Rocket 4.3 21:52:19 10° N 21:56:35 42° ENE 21:58:33 26° SE
Cosmos 1455 3.3 21:57:49 10° N 22:01:19 32° ENE 22:02:38 25° ESE
Cosmos 389 Rocket 2.6 21:59:12 10° N 22:02:35 58° ENE 22:03:30 41° SE
NOSS 0 Rocket 4.5 22:01:25 26° SSE 22:04:14 40° ESE 22:10:00 10° NE
COSMOS 2428 2.7 22:01:02 20° SSW 22:05:06 74° ESE 22:10:52 10° NNE
H-2A R/B 4.5 22:02:19 10° N 22:06:12 42° WNW 22:09:25 14° SW
Cosmos 2322 3.8 22:02:40 11° SSW 22:08:07 76° WNW 22:13:48 10° NNE
Cosmos 1300 3.7 22:05:20 10° NNW 22:08:55 39° W 22:10:36 25° SW
Cosmos 1606 Rocket 3.6 22:06:09 10° N 22:10:39 73° E 22:12:29 35° SSE
Cosmos 1892 Rocket 4.2 22:12:19 32° SE 22:13:46 43° E 22:17:59 10° NNE
ALOS 2 3.4 22:11:48 26° ESE 22:13:47 42° ENE 22:17:57 10° N
COBE Rocket 4.3 22:12:19 28° SE 22:14:51 56° ENE 22:19:43 10° N
Cosmos 2278 Rocket 2.4 22:09:28 10° NNW 22:15:08 64° ENE 22:18:27 25° SE
SJ 16-02 3.9 22:14:07 10° NNE 22:16:05 13° NE 22:18:02 10° ENE
Cosmos 1486 Rocket 3.9 22:13:04 10° NNW 22:18:20 86° WSW 22:20:48 32° SSE
USA 267 3.3 22:12:27 12° ESE 22:18:37 79° NNE 22:25:11 10° NW
Cosmos 1346 Rocket 2.7 22:19:17 37° SSW 22:20:47 89° W 22:24:50 10° N
Cosmos 1844 Rocket 4.4 22:21:59 10° NW 22:26:10 21° W 22:29:19 14° SW
SL-4 R/B 3.8 22:30:03 16° E 22:30:03 16° E 22:31:11 10° E
Meteor 2-5 Rocket 4.5 22:24:44 15° SW 22:29:07 48° WNW 22:34:33 10° N
Cosmos 1354 Rocket 4.3 22:25:56 10° NNW 22:31:15 64° ENE 22:33:59 29° SE
Cosmos 968 Rocket 3.9 22:26:23 10° NNW 22:31:20 51° WSW 22:33:31 30° SSW
Cosmos 1464 Rocket 4.2 22:26:35 10° N 22:32:56 68° E 22:36:22 29° SSE
Lacrosse 5 rocket 2.1 22:30:08 10° WSW 22:33:38 45° NNW 22:37:05 10° NE
Cosmos 1992 Rocket 3.9 22:32:39 30° SSW 22:35:19 82° ESE 22:40:34 10° NNE
GEOS 3 Rocket 4.0 22:36:02 32° S 22:38:13 50° SW 22:43:27 10° NW
Cosmos 1184 Rocket 3.0 22:38:30 49° ESE 22:38:39 50° E 22:41:50 10° NNE
Cosmos 1607 4.0 22:37:24 10° NW 22:43:52 80° NE 22:47:53 24° SE
Meteor 2-1 Rocket 4.2 22:40:47 10° N 22:46:19 75° ENE 22:48:54 33° SSE
Terra 4.2 22:45:54 10° WSW 22:48:05 13° W 22:50:16 10° WNW
Cosmos 1703 3.5 22:49:57 45° SE 22:50:47 56° E 22:54:40 10° NNE
Cosmos 1980 3.7 22:50:46 32° S 22:53:28 73° ESE 22:59:10 10° NNE
Cosmos 1441 Rocket 3.4 22:52:52 46° SE 22:53:35 55° E 22:57:22 10° NNE
Cosmos 192 4.4 22:54:34 38° S 22:56:16 61° ESE 23:01:09 10° NNE
FAST Rocket 4.2 22:56:21 66° SSE 22:56:39 75° E 23:00:40 10° N
FALCON 9 DEB 3.0 22:56:14 44° W 22:57:06 74° NNW 23:00:14 10° ENE
Cosmos 2333 Rocket 3.6 22:52:33 10° WSW 22:57:50 37° NW 23:03:08 10° NNE
Cosmos 1943 Rocket 3.6 22:54:23 10° NNW 22:59:19 32° NE 23:04:15 10° ESE
Cosmos 2228 4.4 22:55:53 10° NNW 22:59:42 29° W 23:01:23 22° SW
Cosmos 1328 4.3 22:59:39 39° SE 23:00:22 44° E 23:04:06 10° NNE
BREEZE-M DEB (TANK) 2.5 22:58:09 10° WSW 23:05:47 65° SSE 23:08:34 10° ENE
Cosmos 2034 Rocket 3.9 23:00:07 10° N 23:06:22 83° E 23:09:25 32° SSE
Okean 1-7 Rocket 3.5 23:06:13 43° S 23:07:41 88° E 23:12:10 10° N
NOSS 3-1 (C) 4.3 23:09:26 23° SE 23:10:37 25° ESE 23:15:25 10° ENE
Cosmos 2219 Rocket 3.7 23:07:42 10° WSW 23:12:49 33° NW 23:17:57 10° NNE
SAR-Lupe-2 3.4 23:11:18 10° NNE 23:14:55 89° ESE 23:15:31 60° SSW
ATLAS 3B R/B 3.7 23:09:56 10° WSW 23:16:12 44° NW 23:22:43 10° NE
Cosmos-2242 4.4 23:15:02 10° N 23:19:00 32° ENE 23:21:04 21° ESE
FALCON 9 DEB 4.0 23:16:35 11° W 23:19:25 44° NNW 23:22:24 10° NE
FALCON 9 DEB 3.7 23:19:50 19° W 23:21:50 50° NNW 23:24:53 10° ENE
USA 32 4.1 23:16:35 10° N 23:21:51 71° E 23:24:07 34° SSE
SL-16 R/B 2.8 23:20:20 31° SSE 23:22:20 42° ESE 23:27:39 10° NE
ATLAS CENTAUR R/B 3.8 23:20:33 10° W 23:22:22 12° WSW 23:22:33 12° WSW
Cosmos 2058 Rocket 3.8 23:20:03 10° NNW 23:24:14 41° W 23:25:34 32° SW
Cosmos 1812 Rocket 3.7 23:22:24 10° N 23:26:44 63° E 23:28:14 38° SE
Cosmos 2237 Rocket 2.3 23:24:08 26° SW 23:27:23 70° WNW 23:33:02 10° NNE
USA 215 3.8 23:21:00 10° NE 23:27:25 61° NNW 23:33:49 10° WSW
FALCON 9 DEB 4.1 23:25:34 10° W 23:28:32 42° NNW 23:31:31 10° NE
ATLAS CENTAUR R/B 3.5 23:25:37 28° SSW 23:28:52 72° SE 23:42:40 10° NE
Tsikada Rocket 3.9 23:28:42 32° S 23:31:43 81° E 23:37:55 10° N
SL-16 R/B 4.5 23:28:38 10° ESE 23:33:23 24° NE 23:38:07 10° N
Thor Agena Rocket 3.5 23:28:55 10° NNE 23:34:14 87° ESE 23:36:27 36° SSW
GP-B 3.1 23:31:08 10° N 23:35:37 81° E 23:37:02 43° S
Cosmos 1455 4.0 23:33:51 10° NW 23:36:41 20° W 23:37:30 19° WSW
Cosmos 2369 Rocket 3.6 23:32:45 10° NNW 23:38:00 35° NE 23:43:12 10° ESE
Meteor 1-4 Rocket 2.7 23:41:09 10° NNW 23:44:33 52° W 23:44:51 50° WSW
Cosmos 724 4.3 23:39:50 10° NW 23:46:03 89° WSW 23:50:00 23° SE
ALOS 2 4.2 23:49:12 20° WSW 23:50:18 22° W 23:53:43 10° NW
SJ 16-02 1.3 23:50:58 10° NNW 23:55:23 87° ENE 23:57:01 38° SSE
